SR5MRF Weather Reports


Display with metric or nautical units.
time (UTC)temp
F
wind
direction
speed
MPH
gust
MPH
rain 1hr
in
rain 24hr
in
rain mn
in
humidity
%
barometer
mb
20260504080844 82 135 0.0 0.0 0.00 0.00 0.00 29 1011.5
20260504080243 82 157 0.0 0.0 0.00 0.00 0.00 29 1011.4
20260504050743 57 202 0.0 0.0 0.00 0.00 0.00 54 1011.6
20260504045343 55 202 0.0 0.0 0.00 0.00 0.00 55 1011.8
20260504044643 55 202 0.0 0.0 0.00 0.00 0.00 56 1011.6
20260504043943 55 247 0.0 0.0 0.00 0.00 0.00 56 1011.6
20260504043844 55 247 0.0 0.0 0.00 0.00 0.00 56 1011.6
20260504043243 54 225 0.0 0.0 0.00 0.00 0.00 56 1011.6
20260504042844 54 225 0.0 0.0 0.00 0.00 0.00 57 1011.6
20260504042543 54 225 0.0 0.0 0.00 0.00 0.00 57 1011.6
20260504041843 53 157 0.0 0.0 0.00 0.00 0.00 58 1011.6
20260504041143 53 202 0.0 0.0 0.00 0.00 0.00 58 1011.6
20260504040845 53 180 0.0 0.0 0.00 0.00 0.00 58 1011.6
20260504040443 53 180 0.0 0.0 0.00 0.00 0.00 58 1011.6
20260504035743 52 180 0.0 0.0 0.00 0.00 0.00 58 1011.6
20260504035043 52 180 0.0 0.0 0.00 0.00 0.00 58 1011.5
20260504034343 52 180 0.0 0.0 0.00 0.00 0.00 58 1011.6
20260504033844 52 180 0.0 0.0 0.00 0.00 0.00 58 1011.7
20260504033643 52 180 0.0 0.0 0.00 0.00 0.00 57 1011.7
20260504032943 52 180 0.0 0.0 0.00 0.00 0.00 57 1011.6
20260504032243 52 180 0.0 0.0 0.00 0.00 0.00 57 1011.6
20260504031543 53 180 0.0 0.0 0.00 0.00 0.00 57 1011.6
20260504030843 53 180 0.0 0.0 0.00 0.00 0.00 57 1011.6
20260504030143 53 180 0.0 0.0 0.00 0.00 0.00 57 1011.6
20260504025443 53 180 0.0 0.0 0.00 0.00 0.00 56 1011.6
20260504024844 53 180 0.0 0.0 0.00 0.00 0.00 56 1011.5
20260504024743 53 180 0.0 0.0 0.00 0.00 0.00 56 1011.5
20260504024043 53 180 0.0 0.0 0.00 0.00 0.00 56 1011.7
20260504023844 53 180 0.0 0.0 0.00 0.00 0.00 56 1011.6
20260504023343 53 180 0.0 0.0 0.00 0.00 0.00 56 1011.6
20260504022844 54 180 0.0 0.0 0.00 0.00 0.00 56 1011.6
20260504022643 54 180 0.0 0.0 0.00 0.00 0.00 55 1011.6
20260504021943 54 180 0.0 0.0 0.00 0.00 0.00 55 1011.5
20260504021844 54 180 0.0 0.0 0.00 0.00 0.00 55 1011.5
20260504021243 54 180 0.0 0.0 0.00 0.00 0.00 55 1011.6
20260504020844 54 180 0.0 0.0 0.00 0.00 0.00 54 1011.5
20260504020543 54 180 0.0 0.0 0.00 0.00 0.00 54 1011.5
20260504015843 55 180 0.0 0.0 0.00 0.00 0.00 54 1011.6
20260504015143 55 180 0.0 0.0 0.00 0.00 0.00 53 1011.6
20260504014844 55 180 0.0 0.0 0.00 0.00 0.00 53 1011.7
20260504014443 55 180 0.0 0.0 0.00 0.00 0.00 53 1011.6
20260504013844 55 180 0.0 0.0 0.00 0.00 0.00 52 1011.6
20260504013743 55 180 0.0 0.0 0.00 0.00 0.00 52 1011.6
20260504013043 55 180 0.0 0.0 0.00 0.00 0.00 52 1011.5
20260504012844 55 180 0.0 0.0 0.00 0.00 0.00 52 1011.5
20260504012343 55 180 0.0 0.0 0.00 0.00 0.00 52 1011.5
20260504011844 55 180 0.0 0.0 0.00 0.00 0.00 52 1011.6
20260504011643 56 180 0.0 0.0 0.00 0.00 0.00 52 1011.5
20260504010943 56 180 0.0 0.0 0.00 0.00 0.00 52 1011.7
20260504010844 56 180 0.0 0.0 0.00 0.00 0.00 52 1011.8
20260504010243 56 180 0.0 0.0 0.00 0.00 0.00 52 1011.8
20260504005844 56 180 0.0 0.0 0.00 0.00 0.00 51 1011.7
20260504005543 56 270 0.0 0.0 0.00 0.00 0.00 51 1011.7
20260504004843 56 270 0.0 0.0 0.00 0.00 0.00 51 1011.7
20260504004143 56 270 0.0 0.0 0.00 0.00 0.00 51 1011.6
20260504003844 57 270 0.0 0.0 0.00 0.00 0.00 51 1011.6
20260504003443 57 270 0.0 0.0 0.00 0.00 0.00 51 1011.6
20260504002844 57 270 0.0 0.0 0.00 0.00 0.00 51 1011.6
20260504002744 57 270 0.0 0.0 0.00 0.00 0.00 51 1011.5
20260504002044 57 270 0.0 0.0 0.00 0.00 0.00 51 1011.7
20260504001844 57 270 0.0 0.0 0.00 0.00 0.00 51 1011.7
20260504001344 57 270 0.0 0.0 0.00 0.00 0.00 51 1011.7
20260504000844 57 270 0.0 0.0 0.00 0.00 0.00 50 1011.7
20260504000643 57 270 0.0 0.0 0.00 0.00 0.00 50 1011.7
20260503235944 57 270 0.0 0.0 0.00 0.00 0.00 50 1011.6
20260503235844 57 270 0.0 0.0 0.00 0.00 0.00 50 1011.6
20260503235244 58 270 0.0 0.0 0.00 0.00 0.00 50 1011.8
20260503234844 58 270 0.0 0.0 0.00 0.00 0.00 49 1011.8
20260503234544 58 270 0.0 0.0 0.00 0.00 0.00 49 1011.8
20260503233844 58 270 0.0 0.0 0.00 0.00 0.00 49 1011.7
20260503233144 58 270 0.0 0.0 0.00 0.00 0.00 48 1011.8
20260503232844 58 270 0.0 0.0 0.00 0.00 0.00 48 1011.8
20260503232444 58 270 0.0 0.0 0.00 0.00 0.00 48 1011.8
20260503231844 59 270 0.0 0.0 0.00 0.00 0.00 47 1011.8
20260503231744 59 270 0.0 0.0 0.00 0.00 0.00 47 1011.7
20260503231044 59 270 0.0 0.0 0.00 0.00 0.00 47 1011.7
20260503230844 59 270 0.0 0.0 0.00 0.00 0.00 46 1011.7
20260503230344 59 270 0.0 0.0 0.00 0.00 0.00 46 1011.7
20260503225845 59 270 0.0 0.0 0.00 0.00 0.00 46 1011.9
20260503225644 60 270 0.0 0.0 0.00 0.00 0.00 46 1011.9
20260503224944 60 270 0.0 0.0 0.00 0.00 0.00 45 1011.9
20260503224845 60 270 0.0 0.0 0.00 0.00 0.00 45 1011.9
20260503224244 60 270 0.0 0.0 0.00 0.00 0.00 45 1011.8
20260503223845 60 270 0.0 0.0 0.00 0.00 0.00 45 1011.7
20260503223544 60 270 0.0 0.0 0.00 0.00 0.00 44 1011.9
20260503222844 61 270 0.0 0.0 0.00 0.00 0.00 44 1011.8
20260503222144 61 270 0.0 0.0 0.00 0.00 0.00 44 1011.7
20260503221845 61 270 0.0 0.0 0.00 0.00 0.00 43 1011.8
20260503221444 61 270 0.0 0.0 0.00 0.00 0.00 43 1011.8
20260503220845 62 270 0.0 0.0 0.00 0.00 0.00 43 1011.9
20260503220744 62 270 0.0 0.0 0.00 0.00 0.00 43 1011.9
20260503220044 62 270 0.0 0.0 0.00 0.00 0.00 42 1011.9
20260503215845 62 270 0.0 0.0 0.00 0.00 0.00 42 1011.9
20260503215344 62 270 0.0 0.0 0.00 0.00 0.00 42 1011.8
20260503214845 62 270 0.0 0.0 0.00 0.00 0.00 42 1011.9
20260503214644 63 270 0.0 0.0 0.00 0.00 0.00 42 1011.7
20260503213944 63 270 0.0 0.0 0.00 0.00 0.00 41 1011.7
20260503213845 63 270 0.0 0.0 0.00 0.00 0.00 41 1011.7
20260503213244 63 270 0.0 0.0 0.00 0.00 0.00 41 1011.8
20260503212845 64 270 0.0 0.0 0.00 0.00 0.00 41 1011.7
20260503212544 64 270 0.0 0.0 0.00 0.00 0.00 40 1011.8
20260503211844 64 270 0.0 0.0 0.00 0.00 0.00 40 1011.8
20260503211144 64 270 0.0 0.0 0.00 0.00 0.00 40 1012.0
20260503210845 64 270 0.0 0.0 0.00 0.00 0.00 39 1012.0
20260503210444 65 270 0.0 0.0 0.00 0.00 0.00 39 1012.0
20260503205845 65 270 0.0 0.0 0.00 0.00 0.00 39 1012.0
20260503205744 65 270 0.0 0.0 0.00 0.00 0.00 38 1012.0
20260503205044 65 270 0.0 0.0 0.00 0.00 0.00 38 1012.0
20260503204845 66 270 0.0 0.0 0.00 0.00 0.00 38 1012.0
20260503204344 66 270 0.0 0.0 0.00 0.00 0.00 38 1012.0
20260503203845 66 292 0.0 0.0 0.00 0.00 0.00 37 1011.9
20260503203644 66 315 0.0 0.0 0.00 0.00 0.00 37 1011.8
20260503202944 66 202 0.0 0.0 0.00 0.00 0.00 37 1012.0
20260503202845 66 202 0.0 0.0 0.00 0.00 0.00 37 1011.9
20260503202244 67 202 0.0 0.0 0.00 0.00 0.00 36 1011.8
20260503201845 67 202 0.0 0.0 0.00 0.00 0.00 36 1011.8
20260503201544 67 202 0.0 0.0 0.00 0.00 0.00 35 1011.8
20260503200844 67 247 0.0 0.0 0.00 0.00 0.00 35 1011.8
20260503200144 67 247 0.0 0.0 0.00 0.00 0.00 35 1011.8
20260503195845 67 247 0.0 0.0 0.00 0.00 0.00 35 1011.8
20260503195444 67 247 0.0 0.0 0.00 0.00 0.00 35 1011.7
20260503194845 68 247 0.0 0.0 0.00 0.00 0.00 35 1011.7
20260503194744 68 247 0.0 0.0 0.00 0.00 0.00 35 1011.7
20260503194044 68 247 0.0 0.0 0.00 0.00 0.00 34 1011.6
20260503193845 68 247 0.0 0.0 0.00 0.00 0.00 34 1011.7
20260503193344 68 247 0.0 0.0 0.00 0.00 0.00 34 1011.9
20260503192644 69 247 0.0 0.0 0.00 0.00 0.00 33 1011.8
20260503191944 69 247 0.0 0.0 0.00 0.00 0.00 33 1011.8
20260503191845 69 247 0.0 0.0 0.00 0.00 0.00 33 1011.9
20260503191244 69 247 0.0 0.0 0.00 0.00 0.00 33 1011.7
20260503190544 70 247 0.0 0.0 0.00 0.00 0.00 32 1011.8
20260503185844 70 247 0.0 0.0 0.00 0.00 0.00 32 1011.7
20260503185144 71 247 0.0 0.0 0.00 0.00 0.00 31 1011.7
20260503184845 71 247 0.0 0.0 0.00 0.00 0.00 31 1011.7
20260503184444 72 247 0.0 0.0 0.00 0.00 0.00 30 1011.7
20260503183845 72 247 0.0 0.0 0.00 0.00 0.00 30 1011.7
20260503183744 72 247 0.0 0.0 0.00 0.00 0.00 30 1011.6
20260503183044 73 247 0.0 0.0 0.00 0.00 0.00 30 1011.4
20260503182845 73 247 0.0 0.0 0.00 0.00 0.00 30 1011.4
20260503182344 73 247 0.0 0.0 0.00 0.00 0.00 29 1011.6
20260503181845 73 247 0.0 0.0 0.00 0.00 0.00 29 1011.6
20260503181644 73 247 0.0 0.0 0.00 0.00 0.00 29 1011.5
20260503180944 74 247 0.0 0.0 0.00 0.00 0.00 29 1011.3
20260503180244 74 247 0.0 0.0 0.00 0.00 0.00 29 1011.5
20260503175845 75 247 0.0 0.0 0.00 0.00 0.00 29 1011.5
20260503175544 75 247 0.0 0.0 0.00 0.00 0.00 28 1011.5
20260503174844 75 247 0.0 0.0 0.00 0.00 0.00 28 1011.3
20260503174144 76 247 0.0 0.0 0.00 0.00 0.00 28 1011.4
20260503173845 76 247 0.0 0.0 0.00 0.00 0.00 28 1011.4
20260503173444 76 247 0.0 0.0 0.00 0.00 0.00 28 1011.4
20260503172845 76 157 0.0 0.0 0.00 0.00 0.00 27 1011.2
20260503172744 76 157 0.0 0.0 0.00 0.00 0.00 27 1011.2
20260503172044 76 180 0.0 0.0 0.00 0.00 0.00 27 1011.3
20260503171845 76 180 0.0 0.0 0.00 0.00 0.00 27 1011.4
20260503171344 77 157 0.0 0.0 0.00 0.00 0.00 27 1011.4
20260503170644 77 270 0.0 0.0 0.00 0.00 0.00 27 1011.3
20260503150845 78 292 0.0 0.0 0.00 0.00 0.00 27 1011.8
20260503150744 78 180 0.0 0.0 0.00 0.00 0.00 27 1011.7
20260503130844 79 180 0.0 0.0 0.00 0.00 0.00 25 1013.1
20260503130144 79 225 0.0 0.0 0.00 0.00 0.00 24 1013.1
20260503110245 83 202 0.0 0.0 0.00 0.00 0.00 25 1014.4
20260503090345 85 157 0.0 0.0 0.00 0.00 0.00 27 1015.7
20260503081445 84 180 0.0 0.0 0.00 0.00 0.00 29 1015.9